Regional Weather Roundup
Issued by NWS

Home | Current Version | Previous Version | Text Only | Print | Product List | Glossary Off
Versions: 1 2 3 4 5 6 7 8 9 10 11 12 13 14 15 16 17 18 19 20 21 22 23 24 25 26 27 28 29 30 31 32 33 34 35 36 37 38 39 40 41 42 43 44 45 46 47 48 49 50

000
ASUS43 KFSD 222010
RWRSD

WEATHER ROUNDUP FOR SOUTH DAKOTA
NATIONAL WEATHER SERVICE SIOUX FALLS SD
300 PM CDT MON SEP 22 2014

NOTE: "FAIR" INDICATES FEW OR NO CLOUDS BELOW 12,000 FEET WITH NO
SIGNIFICANT WEATHER AND/OR OBSTRUCTIONS TO VISIBILITY.


SDZ001>005-009-010-012>017-222100-
NORTHWEST AND NORTH CENTRAL SOUTH DAKOTA

CITY           SKY/WX    TMP DP  RH WIND       PRES   REMARKS
BUFFALO          N/A     75  48  38 SE16      29.89F
FAITH            N/A     80  50  34 S21G29    29.96F
MOBRIDGE       MOSUNNY   83  50  31 SE16      29.98F
$$

SDZ012>016-024>037-041>051-057-063-072>074-222100-
SOUTHWEST AND SOUTH CENTRAL SOUTH DAKOTA

CITY           SKY/WX    TMP DP  RH WIND       PRES   REMARKS
RAPID CTY ARPT PTSUNNY   78  48  34 S20G31    29.95F
PIERRE         PTSUNNY   81  46  29 S23G35    30.01F
CUSTER         CLOUDY    65  44  46 W8        30.08F
ELLSWORTH AFB  PTSUNNY   79  49  34 S23G29    29.94F
PHILIP         LGT RAIN  82  50  32 S21G31    29.96F
PINE RIDGE     CLOUDY    69  50  50 S21G37    30.03F
WINNER         CLOUDY    80  44  27 S26G36    30.09F
$$

SDZ004>011-016>023-039-040-222100-
NORTHEAST SOUTH DAKOTA

CITY           SKY/WX    TMP DP  RH WIND       PRES   REMARKS
ABERDEEN       SUNNY     76  46  34 S14G23    30.10F
WATERTOWN      SUNNY     73  44  35 S14       30.15F
SISSETON         N/A     76  45  33 W8        30.12F
$$

SDZ017-020-022-023-036>040-048>070-222100-
SOUTHEAST SOUTH DAKOTA

CITY           SKY/WX    TMP DP  RH WIND       PRES   REMARKS
SIOUX FALLS    PTSUNNY   72  45  37 S12       30.19F
HURON          MOSUNNY   76  47  35 S14G22    30.12F
CHAMBERLAIN    MOSUNNY   76  49  39 S16G24    30.09F
MITCHELL       SUNNY     75  48  38 S12       30.15F
YANKTON        MOSUNNY   72  48  43 S14       30.18F
$$

ABBREVIATIONS USED IN REMARKS
   TC - TEMPERATURE IN CELSIUS
  WCI - WIND CHILL INDEX
   HX - HEAT INDEX
  VSB - VISIBILITY




USA.gov is the U.S. government's official web portal to all federal, state and local government web resources and services.